Weather History for Hibbing, MN

Change the Weather History Date:

Saturday, May 11, 2013

  Actual Average Record
Temperature  
Mean Temperature 40 °F -  
Max Temperature 46 °F 60 °F 83 °F (1991)
Min Temperature 33 °F 37 °F 23 °F (1963)
Degree Days  
Heating Degree Days 26    
Moisture  
Dew Point 27 °F    
Average Humidity 63    
Maximum Humidity 81    
Minimum Humidity 45    
Precipitation  
Precipitation 0.00 in - - ()
Sea Level Pressure  
Sea Level Pressure 30.06 in    
Wind  
Wind Speed 19 mph (NW)    
Max Wind Speed 31 mph    
Max Gust Speed 41 mph    
Visibility 9 miles    
Events Rain , Snow    
Averages and records for this station are not official NWS values.
T = Trace of Precipitation, MM = Missing Value Source: NWS Daily Summary

Daily Weather History Graph

Daily Weather History Graph

Search for Another Location

Airport:

Trip Planner

Search our weather history database for the weather conditions in past years. The results will help you decide how hot, cold, wet, or windy it might be!

Date:

Astronomy

May. 11, 2013 Rise Set
Actual Time 5:39 AM CDT 8:36 PM CDT
Civil Twilight 5:03 AM CDT 9:12 PM CDT
Nautical Twilight 4:17 AM CDT 9:58 PM CDT
Astronomical Twilight 3:22 AM CDT 10:54 PM CDT
Moon 6:45 AM CDT (5/11) 10:19 PM CDT (5/11)
Length of Visible Light 16h 08m
Length of Day
14h 57m
Waxing Crescent, 3% of the Moon is Illuminated
May 11
Waxing Crescent
May 17
First Quarter
May 24
Full
May 31
Last Quarter
Jun 8
New

Hourly Weather History & Observations

Time (CDT) Temp. Windchill Dew Point Humidity Pressure Visibility Wind Dir Wind Speed Gust Speed Precip Events Conditions
12:53 AM 39.9 °F 31.1 °F 30.0 °F 68% 29.99 in 10.0 mi NW 17.3 mph 25.3 mph N/A   Overcast
1:53 AM 39.0 °F 29.6 °F 28.0 °F 65% 29.99 in 10.0 mi NNW 18.4 mph - N/A   Overcast
2:17 AM 37.4 °F 27.8 °F 28.4 °F 70% 29.96 in 10.0 mi NW 17.3 mph 23.0 mph N/A   Overcast
2:53 AM 37.9 °F 28.2 °F 28.0 °F 68% 29.99 in 10.0 mi NW 18.4 mph 25.3 mph N/A   Overcast
3:53 AM 36.0 °F 26.3 °F 28.0 °F 73% 30.00 in 10.0 mi NW 16.1 mph 23.0 mph N/A   Mostly Cloudy
4:53 AM 36.0 °F 27.5 °F 27.0 °F 70% 30.01 in 10.0 mi NW 12.7 mph - N/A   Overcast
5:20 AM 35.6 °F 25.5 °F 26.6 °F 70% 29.98 in 10.0 mi NW 17.3 mph 20.7 mph N/A   Mostly Cloudy
5:32 AM 33.8 °F 23.5 °F 26.6 °F 75% 29.98 in 10.0 mi NW 16.1 mph 24.2 mph N/A   Scattered Clouds
5:53 AM 34.0 °F 24.2 °F 27.0 °F 75% 30.03 in 10.0 mi NW 15.0 mph 21.9 mph N/A   Scattered Clouds
6:00 AM 35.6 °F 25.9 °F 26.6 °F 70% 29.99 in 10.0 mi NW 16.1 mph 23.0 mph N/A   Mostly Cloudy
6:53 AM 35.1 °F 24.1 °F 26.1 °F 70% 30.04 in 10.0 mi NW 19.6 mph 26.5 mph N/A   Overcast
7:53 AM 36.0 °F 25.3 °F 26.1 °F 67% 30.05 in 10.0 mi NW 19.6 mph 27.6 mph N/A   Overcast
8:05 AM 37.4 °F 26.9 °F 26.6 °F 65% 30.01 in 10.0 mi NW 20.7 mph 28.8 mph N/A   Overcast
8:15 AM 37.4 °F 27.5 °F 26.6 °F 65% 30.01 in 10.0 mi NW 18.4 mph 27.6 mph N/A   Overcast
8:42 AM 37.4 °F 26.4 °F 26.6 °F 65% 30.01 in 10.0 mi NW 23.0 mph 31.1 mph N/A   Overcast
8:53 AM 37.9 °F 28.2 °F 26.1 °F 62% 30.05 in 10.0 mi NW 18.4 mph 25.3 mph N/A   Overcast
9:53 AM 39.0 °F 29.3 °F 25.0 °F 57% 30.05 in 10.0 mi NW 19.6 mph 29.9 mph N/A   Overcast
10:53 AM 39.0 °F 28.5 °F 24.1 °F 55% 30.06 in 10.0 mi NNW 23.0 mph 40.3 mph N/A   Overcast
11:53 AM 43.0 °F 33.8 °F 25.0 °F 49% 30.06 in 10.0 mi NW 23.0 mph 39.1 mph N/A   Overcast
12:40 PM 37.4 °F 25.4 °F 28.4 °F 70% 30.04 in 2.5 mi NW 27.6 mph 40.3 mph 0.00 in Snow Light Snow
12:48 PM 41.0 °F 30.7 °F 32.0 °F 70% 30.03 in 3.0 mi NW 25.3 mph 35.7 mph 0.00 in   Unknown
12:53 PM 43.0 °F 32.5 °F 30.0 °F 60% 30.06 in 9.0 mi NW 29.9 mph 38.0 mph 0.00 in   Mostly Cloudy
1:07 PM 37.4 °F 24.8 °F 28.4 °F 70% 30.04 in 2.0 mi NW 31.1 mph 41.4 mph 0.00 in Snow Light Snow
1:14 PM 37.4 °F 25.9 °F 32.0 °F 81% 30.03 in 1.2 mi NNW 25.3 mph 39.1 mph 0.00 in Snow Light Snow
1:18 PM 39.2 °F 28.3 °F 30.2 °F 70% 30.03 in 2.0 mi NNW 25.3 mph 39.1 mph 0.00 in   Unknown
1:25 PM 42.8 °F 32.7 °F 30.2 °F 61% 30.03 in 9.0 mi NNW 27.6 mph 38.0 mph 0.00 in Rain Light Rain
1:53 PM 43.0 °F 33.5 °F 27.0 °F 53% 30.07 in 10.0 mi NW 24.2 mph 38.0 mph 0.00 in   Overcast
2:53 PM 44.1 °F 35.9 °F 30.0 °F 58% 30.09 in 10.0 mi NNW 19.6 mph 32.2 mph N/A   Mostly Cloudy
3:53 PM 46.0 °F 37.2 °F 26.1 °F 46% 30.09 in 10.0 mi NNW 26.5 mph 39.1 mph 0.00 in   Mostly Cloudy
4:53 PM 43.0 °F 33.1 °F 28.0 °F 56% 30.12 in 7.0 mi NNW 26.5 mph 34.5 mph 0.00 in   Overcast
5:53 PM 42.1 °F 32.6 °F 26.1 °F 53% 30.14 in 10.0 mi NNW 23.0 mph 31.1 mph 0.00 in   Mostly Cloudy
6:53 PM 41.0 °F 32.8 °F 24.1 °F 51% 30.16 in 10.0 mi NNW 16.1 mph 25.3 mph N/A   Overcast
7:53 PM 41.0 °F 32.8 °F 21.0 °F 45% 30.16 in 10.0 mi NNW 16.1 mph 26.5 mph N/A   Overcast
8:53 PM 39.0 °F 31.0 °F 21.0 °F 49% 30.18 in 10.0 mi NNW 13.8 mph - N/A   Overcast
9:53 PM 37.9 °F 30.5 °F 19.0 °F 47% 30.19 in 10.0 mi NNW 11.5 mph - N/A   Mostly Cloudy
10:53 PM 35.1 °F 27.9 °F 21.0 °F 57% 30.19 in 10.0 mi NNW 9.2 mph - N/A   Mostly Cloudy
11:53 PM 33.1 °F 26.1 °F 21.0 °F 61% 30.19 in 10.0 mi NNW 8.1 mph - N/A   Scattered Clouds